Regional Weather Roundup
Issued by NWS

Home | Current Version | Previous Version | Text Only | Print | Product List | Glossary On
Versions: 1 2 3 4 5 6 7 8 9 10 11 12 13 14 15 16 17 18 19 20 21 22 23 24 25 26 27 28 29 30 31 32 33 34 35 36 37 38 39 40 41 42 43 44 45 46 47 48 49 50
000
ASUS43 KTOP 040308
RWRKS

WEATHER ROUNDUP FOR KANSAS
NATIONAL WEATHER SERVICE GOODLAND KS
1000 PM CDT SUN MAY 03 2015

NOTE:  "FAIR" INDICATES FEW OR NO CLOUDS BELOW 12,000 FEET WITH NO
SIGNIFICANT WEATHER AND/OR OBSTRUCTIONS TO VISIBILITY.

KSZ001>006-013>018-027>032-041>047-040400-
NORTHWEST KANSAS

CITY           SKY/WX    TMP DP  RH WIND       PRES   REMARKS
GOODLAND       MOCLDY    66  45  46 NE13      29.90R
HAYS           CLOUDY    79  48  34 SW33G40   29.84R
HILL CITY      CLOUDY    78  51  38 N22G32    29.81R THUNDER
RUSSELL        CLOUDY    74  56  53 S12       29.81R
$$

KSZ061>065-074>080-084>089-040400-
SOUTHWEST KANSAS

CITY           SKY/WX    TMP DP  RH WIND       PRES   REMARKS
DODGE CITY     LGT RAIN  67  48  50 W25G41    29.92R
ELKHART          N/A     65  50  58 S1          N/A
GARDEN CITY    CLOUDY    65  49  56 VRB7G22   29.93R
LIBERAL        CLOUDY    64  50  59 E20       29.95R
PRATT          CLOUDY    72  54  53 SW16G26   29.91R
$$

KSZ066>073-081>083-090>101-040400-
SOUTHEAST KANSAS

CITY           SKY/WX    TMP DP  RH WIND       PRES   REMARKS
CHANUTE        CLEAR     68  57  68 S9        29.92R
COFFEYVILLE    PTCLDY    68  57  68 S8        29.93R
MEDICINE LODGE   N/A     72  59  63 S3        29.89R
NEWTON         CLEAR     70  54  56 S15G22    29.90R
PARSONS        PTCLDY    69  57  65 S6        29.94R
WICHITA INTL   MOCLDY    71  55  56 S15       29.89R
WICHITA JABRA  CLEAR     72  55  55 S20G25    29.89R
WICHITA MCCONL PTCLDY    71  56  58 SE17G24   29.90R
WINFIELD       PTCLDY    69  56  62 S13       29.92R
$$

KSZ007>012-019>026-033>040-048>060-102>105-040400-
NORTHEAST KANSAS

CITY           SKY/WX    TMP DP  RH WIND       PRES   REMARKS
CONCORDIA      PTCLDY    75  57  53 S21G26    29.79R
EMPORIA        CLEAR     70  57  63 S14       29.88R
LAWRENCE       PTCLDY    72  58  61 S9        29.86R
MANHATTAN      CLEAR     74  58  57 S15       29.83R
MARYSVILLE     PTCLDY    72  59  64 S10       29.81R
OLATHE IND     FAIR      71  58  63 S16G24    29.89R
OLATHE EXE     CLEAR     71  58  63 S13G21    29.88R
SALINA         PTCLDY    74  60  61 S17G28    29.83R
TOPEKA BILLARD PTCLDY    75  56  51 S9        29.86R
TOPEKA FORBES  PTCLDY    74  56  53 S14       29.85R
$$


USA.gov is the U.S. government's official web portal to all federal, state and local government web resources and services.